Estherville, IA

12:50 PM CDT on May 26, 2017 (GMT -0500)
Estherville Municipal

Weather History for KEST - December, 2013

Change the Weather History Date:

Saturday, December 7, 2013

  Actual Average Record
Temperature  
Mean Temperature 0 °F 22 °F  
Max Temperature 10 °F 30 °F 46 °F (1999)
Min Temperature -10 °F 13 °F -18 °F (1972)
Degree Days  
Heating Degree Days 65 43  
Month to date heating degree days 331 295  
Since 1 July heating degree days 1984 2014  
Cooling Degree Days 0 0  
Month to date cooling degree days 0 0  
Year to date cooling degree days 712 593  
Moisture  
Dew Point -6 °F    
Average Humidity 70    
Maximum Humidity 83    
Minimum Humidity 57    
Precipitation  
Precipitation T in 0.05 in 0.33 in (1969)
Month to date precipitation 0.06 0.34  
Sea Level Pressure  
Sea Level Pressure 30.69 in    
Wind  
Wind Speed 6 mph (WNW)    
Max Wind Speed 10 mph    
Max Gust Speed 13 mph    
Visibility 9 miles    
Events Snow    
T = Trace of Precipitation, MM = Missing Value Source: NWS Daily Summary

Daily Weather History Graph

Daily Weather History Graph

Search for Another Location

Airport or City:

Trip Planner

Search our weather history database for the weather conditions in past years. The results will help you decide how hot, cold, wet, or windy it might be!

Date:

Astronomy

Dec. 07, 2013 Rise Set
Actual Time 7:38 AM CST 4:42 PM CST
Civil Twilight 7:05 AM CST 5:15 PM CST
Nautical Twilight 6:29 AM CST 5:51 PM CST
Astronomical Twilight 5:55 AM CST 6:25 PM CST
Moon 11:17 AM CST (12/7) 10:32 PM CST (12/7)
Length of Visible Light 10h 09m
Length of Day
9h 04m
Waxing Crescent, 29% of the Moon is Illuminated
Dec 7
Waxing Crescent
Dec 9
First Quarter
Dec 17
Full
Dec 25
Last Quarter
Jan 1
New

Hourly Weather History & Observations

Time (CST) Temp. Windchill Dew Point Humidity Pressure Visibility Wind Dir Wind Speed Gust Speed Precip Events Conditions
12:52 AM -6.0 °F -20.1 °F -11.9 °F 75% 30.74 in 10.0 mi NW 6.9 mph - N/A   Clear
1:52 AM -6.0 °F -23.6 °F -11.9 °F 75% 30.74 in 10.0 mi WNW 10.4 mph - N/A   Clear
2:52 AM -7.1 °F -22.8 °F -11.9 °F 79% 30.76 in 10.0 mi WNW 8.1 mph - N/A   Clear
3:52 AM -7.1 °F -22.8 °F -13.0 °F 75% 30.76 in 10.0 mi NW 8.1 mph - N/A   Clear
4:52 AM -9.0 °F -23.8 °F -13.0 °F 83% 30.77 in 10.0 mi West 6.9 mph - N/A   Clear
5:52 AM -9.0 °F -20.4 °F -15.0 °F 75% 30.78 in 10.0 mi West 4.6 mph - N/A   Clear
6:52 AM -9.0 °F -18.2 °F -15.0 °F 75% 30.77 in 10.0 mi WNW 3.5 mph - N/A   Clear
7:52 AM -9.0 °F -22.3 °F -14.1 °F 79% 30.79 in 10.0 mi West 5.8 mph - N/A   Clear
8:52 AM -5.1 °F -17.6 °F -11.0 °F 76% 30.78 in 10.0 mi WNW 5.8 mph - N/A   Clear
9:52 AM -2.0 °F -10.1 °F -7.1 °F 79% 30.79 in 10.0 mi SW 3.5 mph - N/A   Clear
10:52 AM 1.9 °F -9.2 °F -6.0 °F 69% 30.79 in 10.0 mi SW 5.8 mph - N/A   Clear
11:52 AM 5.0 °F -5.6 °F -5.1 °F 63% 30.76 in 10.0 mi West 5.8 mph - N/A   Clear
12:52 PM 8.1 °F -0.5 °F -4.0 °F 58% 30.72 in 10.0 mi West 4.6 mph - N/A   Clear
1:52 PM 9.0 °F -0.9 °F -2.9 °F 59% 30.71 in 10.0 mi WSW 5.8 mph - N/A   Clear
2:52 PM 9.0 °F -0.9 °F -2.9 °F 59% 30.69 in 10.0 mi Variable 5.8 mph - N/A   Clear
3:52 PM 9.0 °F 2.4 °F -2.0 °F 61% 30.67 in 10.0 mi WSW 3.5 mph - N/A   Clear
4:52 PM 6.1 °F -4.3 °F -2.9 °F 67% 30.66 in 10.0 mi NNW 5.8 mph - N/A   Clear
5:52 PM 3.0 °F -9.3 °F -4.0 °F 73% 30.64 in 10.0 mi North 6.9 mph - N/A   Clear
6:52 PM 3.0 °F -8.0 °F -4.0 °F 73% 30.64 in 10.0 mi NNE 5.8 mph - N/A   Clear
7:52 PM 1.9 °F -9.2 °F -4.0 °F 76% 30.63 in 10.0 mi NNE 5.8 mph - N/A   Clear
8:52 PM 3.0 °F -6.4 °F -2.9 °F 76% 30.63 in 10.0 mi NE 4.6 mph - N/A   Overcast
9:52 PM 3.9 °F -6.9 °F -2.9 °F 73% 30.62 in 10.0 mi ESE 5.8 mph - N/A   Overcast
10:52 PM 5.0 °F -6.9 °F -0.9 °F 76% 30.60 in 2.5 mi SE 6.9 mph - 0.00 in Snow Light Snow
11:00 PM 5.0 °F -6.9 °F -0.9 °F 76% 30.48 in 1.8 mi ESE 6.9 mph - 0.00 in Snow Light Snow
11:23 PM 6.1 °F -6.8 °F -0.0 °F 76% 30.48 in 2.0 mi SE 8.1 mph - 0.00 in Snow Light Snow
11:52 PM 6.1 °F -7.8 °F 1.9 °F 83% 30.56 in 2.0 mi SE 9.2 mph - 0.00 in Snow Light Snow